Weather History for Crestview, FL

Change the Weather History Date:

Thursday, January 17, 2013

  Actual Average Record
Temperature  
Mean Temperature 44 °F -  
Max Temperature 48 °F 57 °F 76 °F (1949)
Min Temperature 39 °F 33 °F 16 °F (1977)
Degree Days  
Heating Degree Days 22    
Moisture  
Dew Point 38 °F    
Average Humidity 83    
Maximum Humidity 100    
Minimum Humidity 65    
Precipitation  
Precipitation 0.00 in - - ()
Sea Level Pressure  
Sea Level Pressure 30.12 in    
Wind  
Wind Speed 12 mph (WNW)    
Max Wind Speed 22 mph    
Max Gust Speed 30 mph    
Visibility 8 miles    
Events Rain    
Averages and records for this station are not official NWS values.
T = Trace of Precipitation, MM = Missing Value Source: NWS Daily Summary

Daily Weather History Graph

Daily Weather History Graph

Search for Another Location

Airport:

Trip Planner

Search our weather history database for the weather conditions in past years. The results will help you decide how hot, cold, wet, or windy it might be!

Date:

Astronomy

Jan. 17, 2013 Rise Set
Actual Time 6:43 AM CST 5:09 PM CST
Civil Twilight 6:17 AM CST 5:34 PM CST
Nautical Twilight 5:48 AM CST 6:04 PM CST
Astronomical Twilight 5:19 AM CST 6:33 PM CST
Moon 10:20 AM CST (1/17) 11:27 PM CST (1/17)
Length of Visible Light 11h 17m
Length of Day
10h 25m
Waxing Crescent, 38% of the Moon is Illuminated
Jan 17
Waxing Crescent
Jan 18
First Quarter
Jan 26
Full
Feb 3
Last Quarter
Feb 10
New

Hourly Weather History & Observations

Time (CST) Temp. Windchill Dew Point Humidity Pressure Visibility Wind Dir Wind Speed Gust Speed Precip Events Conditions
12:53 AM 48.0 °F - 46.9 °F 96% 30.01 in 2.5 mi West 10.4 mph - 0.00 in   Overcast
1:11 AM 48.2 °F - 46.4 °F 93% 30.01 in 4.0 mi West 11.5 mph - N/A   Overcast
1:53 AM 46.9 °F - 46.0 °F 97% 30.01 in 9.0 mi West 8.1 mph - N/A   Overcast
2:53 AM 46.0 °F 43.1 °F 45.0 °F 96% 30.00 in 6.0 mi West 5.8 mph - N/A   Overcast
3:53 AM 45.0 °F 40.1 °F 44.1 °F 97% 30.01 in 5.0 mi WSW 9.2 mph - 0.00 in   Overcast
4:21 AM 44.6 °F 39.7 °F 44.6 °F 100% 30.01 in 4.0 mi WSW 9.2 mph - N/A   Overcast
4:53 AM 45.0 °F 39.3 °F 43.0 °F 93% 30.03 in 3.0 mi WSW 11.5 mph 18.4 mph 0.00 in Rain Light Rain
5:14 AM 44.6 °F 39.2 °F 42.8 °F 93% 30.04 in 8.0 mi West 10.4 mph 21.9 mph 0.00 in   Overcast
5:36 AM 44.6 °F 38.1 °F 42.8 °F 93% 30.04 in 6.0 mi West 13.8 mph - 0.00 in Rain Light Rain
5:49 AM 44.6 °F 38.4 °F 42.8 °F 93% 30.05 in 5.0 mi West 12.7 mph - 0.00 in Rain Light Rain
5:53 AM 44.1 °F 38.6 °F 41.0 °F 89% 30.05 in 5.0 mi West 10.4 mph - 0.00 in Rain Light Rain
6:30 AM 42.8 °F 37.0 °F 39.2 °F 87% 30.06 in 10.0 mi West 10.4 mph - 0.00 in   Overcast
6:53 AM 41.0 °F 34.3 °F 39.0 °F 93% 30.06 in 10.0 mi West 11.5 mph 18.4 mph 0.00 in   Overcast
7:44 AM 41.0 °F 34.3 °F 37.4 °F 87% 30.08 in 10.0 mi WSW 11.5 mph 20.7 mph 0.00 in   Overcast
7:53 AM 41.0 °F 34.3 °F 37.0 °F 86% 30.09 in 10.0 mi WSW 11.5 mph 21.9 mph 0.00 in   Overcast
8:20 AM 39.2 °F 33.6 °F 37.4 °F 93% 30.09 in 6.0 mi West 8.1 mph 17.3 mph 0.00 in Rain Light Rain
8:28 AM 39.2 °F 32.5 °F 37.4 °F 93% 30.10 in 10.0 mi West 10.4 mph 18.4 mph 0.00 in   Overcast
8:35 AM 39.2 °F 32.0 °F 37.4 °F 93% 30.10 in 10.0 mi West 11.5 mph 19.6 mph 0.00 in   Overcast
8:53 AM 39.9 °F 30.8 °F 36.0 °F 86% 30.12 in 10.0 mi West 18.4 mph 27.6 mph 0.00 in   Overcast
9:00 AM 41.0 °F 32.8 °F 35.6 °F 81% 30.11 in 10.0 mi West 16.1 mph 25.3 mph N/A   Overcast
9:19 AM 39.2 °F 30.5 °F 35.6 °F 87% 30.13 in 7.0 mi West 16.1 mph 25.3 mph 0.00 in Rain Light Rain
9:53 AM 41.0 °F 34.7 °F 37.0 °F 86% 30.13 in 7.0 mi West 10.4 mph 21.9 mph 0.00 in Rain Light Rain
10:01 AM 41.0 °F 33.5 °F 35.6 °F 81% 30.12 in 10.0 mi West 13.8 mph 20.7 mph 0.00 in   Overcast
10:25 AM 41.0 °F 33.1 °F 35.6 °F 81% 30.12 in 10.0 mi West 15.0 mph 25.3 mph 0.00 in   Overcast
10:53 AM 43.0 °F 34.2 °F 35.1 °F 74% 30.13 in 10.0 mi West 20.7 mph 29.9 mph 0.00 in   Overcast
11:53 AM 39.9 °F 30.8 °F 30.9 °F 70% 30.12 in 10.0 mi WNW 18.4 mph 28.8 mph 0.00 in   Overcast
12:53 PM 41.0 °F 33.1 °F 30.9 °F 67% 30.11 in 10.0 mi WNW 15.0 mph 27.6 mph N/A   Overcast
1:53 PM 43.0 °F 36.0 °F 33.1 °F 68% 30.12 in 10.0 mi WNW 13.8 mph 24.2 mph N/A   Overcast
2:53 PM 44.1 °F 35.4 °F 33.1 °F 65% 30.13 in 10.0 mi NW 21.9 mph 29.9 mph N/A   Overcast
3:53 PM 44.1 °F 37.7 °F 34.0 °F 68% 30.17 in 10.0 mi NW 12.7 mph 26.5 mph N/A   Overcast
4:53 PM 44.1 °F 39.5 °F 35.1 °F 71% 30.20 in 10.0 mi NW 8.1 mph 20.7 mph N/A   Overcast
5:53 PM 44.1 °F 36.8 °F 35.1 °F 71% 30.24 in 10.0 mi NW 16.1 mph 23.0 mph N/A   Overcast
6:15 PM 44.6 °F 37.2 °F 33.8 °F 66% 30.24 in 10.0 mi NW 17.3 mph 26.5 mph N/A   Partly Cloudy
6:53 PM 43.0 °F 35.7 °F 34.0 °F 71% 30.26 in 10.0 mi NNW 15.0 mph 26.5 mph N/A   Partly Cloudy
7:53 PM 42.1 °F 35.2 °F 33.1 °F 70% 30.28 in 10.0 mi NNW 12.7 mph 24.2 mph N/A   Clear
8:53 PM 42.1 °F 35.7 °F 33.1 °F 70% 30.29 in 10.0 mi NNW 11.5 mph 24.2 mph N/A   Clear
9:53 PM 42.1 °F 34.9 °F 34.0 °F 73% 30.28 in 10.0 mi NNW 13.8 mph 23.0 mph N/A   Clear
10:53 PM 43.0 °F 36.4 °F 34.0 °F 71% 30.29 in 10.0 mi NNW 12.7 mph 19.6 mph N/A   Clear
11:53 PM 42.1 °F 35.7 °F 34.0 °F 73% 30.29 in 10.0 mi North 11.5 mph 21.9 mph N/A   Clear